Home   Weather   Ennepetal   Past weeks

Flag for Germany Past Weather in Ennepetal, North Rhine-Westphalia, Germany — Yesterday and Last 2 Weeks

Now
46 °F

Light rain. Passing clouds.


Feels Like: 41 °F
Forecast: 34 / 40 °F
Wind: 13 mph from West

Location: Dortmund / Wickede

Current Time: Feb 23, 2017 at 1:13:56 am

Latest Report: Feb 22, 2017 at 9:50 pm


Visibility: 5 mi

Pressure: 29.68 "Hg

Humidity: 87%

Dew Point: 43 °F

Location of EnnepetalLocation

Past Weather in Ennepetal — Graph

°F

Ennepetal Temperature Yesterday

Maximum temperature yesterday: 50 °F (at 5:20 am)
Minimum temperature yesterday: 45 °F (at 6:50 pm)
Average temperature yesterday: 48 °F

High & Low Weather Summary for the Past Weeks

 TemperatureHumidityPressure
High61 °F (Feb 15, 2:50 pm)94% (Feb 20, 9:50 pm)30.51 "Hg (Feb 20, 9:50 pm)
Low27 °F (Feb 9, 7:20 am)29% (Feb 15, 2:50 pm)29.62 "Hg (Feb 22, 3:50 pm)
Average39 °F75%30.19 "Hg
* Reported Feb 7 9:20 pm — Feb 22 9:50 pm, Ennepetal, Weather by CustomWeather, © 2017

Note: Actual official high and low records may vary slightly from our data, if they occured in-between our weather recording intervals... More about our weather records

Advertising

Ennepetal Weather History for the Previous 24 Hours

Scroll right to see more
 ConditionsComfort  
Time TempWeatherWind HumidityBarometerVisibility
9:50 pm
Wed, Feb 22
46 °FLight rain. Passing clouds.13 mph87%29.68 "Hg5 mi
9:20 pm46 °FLight rain. Passing clouds.12 mph87%29.68 "HgN/A
8:50 pm46 °FLight rain. Partly cloudy.12 mph87%29.68 "HgN/A
8:20 pm46 °FLight rain. Passing clouds.10 mph87%29.65 "HgN/A
7:50 pm46 °FLight rain. Passing clouds.9 mph87%29.65 "Hg5 mi
7:20 pm45 °FLight rain. Passing clouds.9 mph93%29.65 "Hg3 mi
6:50 pm45 °FPassing clouds.8 mph93%29.65 "HgN/A
6:20 pm48 °FLight rain. Passing clouds.20 mph87%29.62 "Hg5 mi
5:50 pm48 °FLight rain. Partly sunny.22 mph87%29.62 "Hg4 mi
5:20 pm48 °FLight rain. Partly sunny.23 mph87%29.62 "Hg6 mi
4:50 pm48 °FLight rain. Partly sunny.24 mph87%29.62 "Hg5 mi
4:20 pm48 °FLight rain. Partly sunny.26 mph87%29.62 "HgN/A
3:50 pm48 °FLight rain. Partly sunny.23 mph87%29.62 "HgN/A
3:20 pm48 °FLight rain. Partly sunny.23 mph87%29.65 "HgN/A
2:50 pm48 °FPartly sunny.23 mph87%29.65 "HgN/A
2:20 pm48 °FLight rain. Low clouds.22 mph87%29.65 "Hg4 mi
1:50 pm48 °FLight rain. Partly sunny.23 mph87%29.68 "Hg4 mi
1:20 pm48 °FPartly sunny.21 mph82%29.68 "Hg4 mi
12:50 pm48 °FLight rain. Partly sunny.23 mph87%29.68 "Hg4 mi
12:20 pm48 °FPartly sunny.21 mph87%29.68 "Hg6 mi
11:50 am48 °FLight rain. Partly sunny.23 mph87%29.68 "Hg4 mi
11:20 am48 °FLight rain. Partly sunny.22 mph87%29.68 "Hg4 mi
10:50 am48 °FLight rain. Partly sunny.22 mph82%29.68 "Hg4 mi
10:20 am48 °FLight rain. Partly sunny.23 mph82%29.68 "Hg4 mi
9:50 am48 °FFog.23 mph82%29.68 "Hg2 mi
9:20 am48 °FLight rain. Partly sunny.24 mph82%29.68 "Hg4 mi
8:50 am48 °FPartly sunny.25 mph82%29.68 "Hg4 mi
8:20 am46 °FRain. Partly sunny.22 mph87%29.68 "Hg2 mi
7:50 am46 °FRain. Partly sunny.22 mph87%29.71 "Hg2 mi
7:20 am48 °FRain. Passing clouds.20 mph82%29.71 "Hg2 mi
6:50 am48 °FPassing clouds.24 mph82%29.71 "HgN/A
6:20 am48 °FPassing clouds.21 mph76%29.71 "HgN/A
5:50 am48 °FPassing clouds.22 mph82%29.71 "HgN/A
5:20 am50 °FPassing clouds.24 mph76%29.71 "HgN/A
Weather by CustomWeather, © 2017

See weather overviewHow to use our weather pages